Погода в Высочине

Россия / Ростовская область     46°59′47″N   39°33′34″E
темп.,
°C
ветер,
м/с
пор.,
м/с
влажн.,
%
обл.,
%
осадки,
мм/ч
давл.,
гПа
погр.,
м
9 мая, вс
вс900:00+16юз3782100 0.1 1007167
03:00+14сз61083100 0.1 1008518
06:00+9сз61091100 3.3 1011585
09:00+10сз8974100 3.4 10131044
12:00+11сз81064100 0.1 10141297
15:00+12ссз71055100 0.1 10161785
18:00+12ссз4855100 0.0 10181738
21:00+9ссз226781 0.2 102144
10 мая, пн
пн1000:00+7сз237819 0.2 102266
03:00+6сз4108032 0.3 1022233
06:00+6сз5117926 0.0 1022401
09:00+11сз81157100 0.0 10211565
12:00+11сз71158100 0.2 10201860
15:00+11сз71263100 0.5 10191597
18:00+10зсз71270100 0.6 10171331
21:00+8зсз81287100 3.3 10161149
11 мая, вт
вт1100:00+7з91492100 5.9 10131150
03:00+8зюз81192100 10.1 10101038
06:00+8юз4896100 3.9 1008517
09:00+8ю3595100 7.2 1008358
12:00+9сз349282 1.3 1008383
15:00+10ююз468597 1.8 1011655
18:00+8ююв91393100 0.7 1014747
21:00+8юв101590100 2.1 10171227
12 мая, ср
ср1200:00+8юв61390100 0.9 10171114
03:00+8вюв51191100 1.1 1017420
06:00+8вюв4990100 0.6 1018291
09:00+13юв687485 0.6 1017839
12:00+14юв3670100 0.2 10171002
15:00+17ююв476691 0.3 10161097
18:00+17юв366915 0.1 1016354
21:00+13вюв35850 0.1 101661
13 мая, чт
чт1300:00+12в34905 0.0 101663
03:00+11в468597 0.0 1015105
06:00+11в48855 0.0 1016170
09:00+18в696856 0.0 1015547
12:00+22вюв786029 0.0 10151087
15:00+23вюв68599 0.0 10141105
18:00+22в61071100 0.0 1014607
21:00+17в4128341 0.0 1014220